AirNav   Pilot Hours Calculator
 
 831 users online  

KLDJ Linden Airport
Linden, New Jersey, USA

GOING TO LINDEN?


FAA INFORMATION EFFECTIVE 08 SEPTEMBER 2022

Location

FAA Identifier: LDJ
Lat/Long: 40-37-02.8180N 074-14-40.5390W
40-37.046967N 074-14.675650W
40.6174494,-74.2445942
(estimated)
Elevation: 22 ft. / 6.7 m (surveyed)
Variation: 13W (2000)
From city: 1 mile SE of LINDEN, NJ
Time zone: UTC -4 (UTC -5 during Standard Time)
Zip code: 07036

Airport Operations

Airport use: Open to the public
Activation date: 10/1942
Control tower: no
ARTCC: NEW YORK CENTER
FSS: MILLVILLE FLIGHT SERVICE STATION
NOTAMs facility: MIV (NOTAM-D service available)
Attendance: MAY-SEP 0700-2030, OCT-APR 0830-1800
Wind indicator: lighted
Segmented circle: yes
Lights: ACTVT MIRL RY 09/27; VASI RYS 09 & 27; AND REILS RYS 09 & 27- CTAF.
Beacon: white-green (lighted land airport)
Operates sunset to sunrise.
Landing fee: yes

Airport Communications

CTAF/UNICOM: 123.0
WX AWOS-3: 124.025 (908-862-7383)
NEW YORK APPROACH: 135.35
NEW YORK DEPARTURE: 119.2 126.7
CLEARANCE DELIVERY: 127.25
WX ASOS at EWR (6 nm NE): PHONE 973-621-2892
WX AWOS-3PT at JRB (12 nm NE): 128.175 (212-425-1534)
WX AWOS-3 at MMU (13 nm NW): PHONE 973-290-0135
WX ASOS at CDW (16 nm N): 135.5 (973-575-4417)
WX ASOS at TEB (16 nm NE): PHONE 201-393-0855
WX ASOS at SMQ (19 nm W): 120.6 (908-722-2139)
WX ASOS at LGA (19 nm NE): PHONE 718-672-6317
  • CLEARANCE DELIVERY PRVDD ON FREQ 127.25 BY NEWARK ATCT, OR CTC NEW YORK APCH AT 800-645-3206.

Nearby radio navigation aids

VOR radial/distance  VOR name  Freq  Var
CRIr282/16.0CANARSIE VOR/DME112.3011W
TEBr222/16.2TETERBORO VOR/DME108.4011W
COLr359/18.8COLTS NECK VOR/DME115.4011W
LGAr252/19.8LA GUARDIA VOR/DME113.1012W
JFKr280/21.6KENNEDY VOR/DME115.9012W
SBJr095/22.7SOLBERG VOR/DME112.9010W
RBVr035/27.4ROBBINSVILLE VORTAC113.8010W
BWZr123/28.4BROADWAY VOR/DME114.2011W
SAXr165/30.1SPARTA VORTAC115.7011W
STWr140/36.3STILLWATER VOR/DME109.6011W
ARDr064/37.3YARDLEY VOR/DME108.2010W
GXUr036/39.9MC GUIRE VORTAC110.6012W

 
NDB name  Hdg/Dist  Freq  Var  ID
CHATHAM144/11.225413WCAT -.-. .- -
TORBY216/12.321412WTE - .
LAKEHURST018/34.639611WNEL -. . .-..

Airport Services

Fuel available: 100LL JET-A
Parking: hangars and tiedowns
Airframe service: MINOR
Powerplant service: MINOR
Bottled oxygen: NONE
Bulk oxygen: NONE

Runway Information

Runway 9/27

Dimensions: 4140 x 100 ft. / 1262 x 30 m
Surface: asphalt, in good condition
Weight bearing capacity: 
Single wheel: 31.5
Double wheel: 42.0
Runway edge lights: medium intensity
RUNWAY 9  RUNWAY 27
Latitude: 40-36.962650N40-37.131270N
Longitude: 074-15.109072W074-14.242217W
Elevation: 21.9 ft.17.9 ft.
Traffic pattern: leftleft
Runway heading: 089 magnetic, 076 true269 magnetic, 256 true
Displaced threshold: 462 ft.541 ft.
Markings: nonprecision, in fair conditionbasic, in fair condition
Visual slope indicator: 2-box VASI on right (3.80 degrees glide path)
VASI UNUSBL BYD 6 DEGS RIGHT AND LEFT OF CNTRLN.
2-box VASI on left (3.50 degrees glide path)
VASI UNUSBL BYD 2 DEGS RIGHT OF CNTRLN.
Runway end identifier lights: yesyes
Touchdown point: yes, no lightsyes, no lights
Obstructions: 32 ft. pole, 352 ft. from runway, 30 ft. right of centerline, 4:1 slope to clear
APCH RATIO 25:1 TO DSPLCD THLD BASED ON 32 FT POLE 812 FT FM DSPLCD THLD.
47 ft. ant, 554 ft. from runway, 100 ft. right of centerline, 7:1 slope to clear
APCH RATIO23:1 TO DSPLCD THLD BASED ON 47 FT ANTENNA 1097 FT FM DSPLCD THLD.

Airport Ownership and Management from official FAA records

Ownership: Publicly-owned
Owner: CITY OF LINDEN
1101 WEST EDGAR RD
LINDEN, NJ 07036
Phone 908-862-5557
Manager: PAUL DUDLEY
1101 WEST EDGAR RD
LINDEN, NJ 07036
Phone 908-862-5557

Airport Operational Statistics

Aircraft based on the field: 27
Single engine airplanes: 23
Multi engine airplanes: 1
Helicopters: 3
    
Aircraft operations: avg 154/day *
61% local general aviation
38% transient general aviation
<1% military
* for 12-month period ending 02 April 2019

Additional Remarks

TPA 800 FT MSL; RY 9 ENTER TFC PAT UPWIND - ENTRIES OTR RYS STD.
MAIN NORTH TWY CLSD INDEFLY.
DEER & BIRDS ON & INVOF APRT.
DEPG RY 27 DEP STRAIGHT OUT TO 800 FT.
NOISE ABATEMENT PROCEDURES IN EFFECT.
TOUCH & GO LANDINGS FOR BASE ASSIGNED ACFT; ALL OTHERS CTC AMGR (908) 862-8800 FOR PPR.
RY 09/27 RWY SHOULDER MARKINGS NSTD.
MAIN NORTH TWY CLSD INDEFLY.

Instrument Procedures

NOTE: All procedures below are presented as PDF files. If you need a reader for these files, you should download the free Adobe Reader.

NOT FOR NAVIGATION. Please procure official charts for flight.
FAA instrument procedures published for use from 8 September 2022 at 0901Z to 6 October 2022 at 0900Z.

 
STARs - Standard Terminal Arrivals
JAIKE THREE (RNAV)   download (230KB)
MAZIE THREE (RNAV)   download (201KB)
WILKES-BARRE FOUR **CHANGED**   download (217KB)
 
IAPs - Instrument Approach Procedures
GPS-A **CHANGED**   download (230KB)
NOTE: Special Take-Off Minimums/Departure Procedures apply   download (442KB)

Other nearby airports with instrument procedures:

KEWR - Newark Liberty International Airport (6 nm NE)
KJRB - Downtown Manhattan/Wall Street Heliport (12 nm NE)
KMMU - Morristown Municipal Airport (13 nm NW)
KJRA - West 30th St Heliport (14 nm NE)
6N5 - East 34th Street Heliport (14 nm NE)
KCDW - Essex County Airport (16 nm N)
KTEB - Teterboro Airport (16 nm NE)
47N - Central Jersey Regional Airport (17 nm W)
3N6 - Old Bridge Airport (18 nm S)
KSMQ - Somerset Airport (19 nm W)
 
Loc | Ops | Rwys | IFR | FBO | Links
Com | Nav | Svcs | Stats | Notes
Area around KLDJ (Linden Airport)
 
Road maps at: MapQuest Bing Google
 
Aerial photo
WARNING: Photo may not be current or correct
Aerial photo of KLDJ (Linden Airport)
Photo by AirNav, LLC
Photo taken 14-Sep-2013
looking west.

Do you have a better or more recent aerial photo of Linden Airport that you would like to share? If so, please send us your photo.

 
Sectional chart

 
Airport distance calculator
Flying to Linden Airport? Find the distance to fly.

From to KLDJ

Sunrise and sunset
Times for 04-Oct-2022
 Local
(UTC-4)
 Zulu
(UTC)
Morning civil twilight06:3010:30
Sunrise06:5710:57
Sunset18:3422:34
Evening civil twilight19:0123:01

Current date and time
Zulu (UTC)  04-Oct-2022 11:05:01
Local (UTC-4)  04-Oct-2022 07:05:01
 
METAR
KLDJ 041055Z AUTO 02010G15KT 7SM RA BKN017 OVC022 08/06 A3004 RMK AO2 P0003 T00800062
KEWR 
5nm NE 
041051Z 36015KT 6SM -RA BR BKN008 OVC014 07/07 A3004 RMK AO2 SLP170 P0006 T00670067 $
KJRB 
12nm NE 
041056Z AUTO 04006KT 10SM -RA BKN014 OVC019 A3003 RMK AO2 UPB18E25RAB25 SLPNO FZRANO $
KMMU 
13nm NW 
041045Z 02009G17KT 7SM RA SCT008 SCT017 OVC024 09/08 A3006
KCDW 
16nm N 
041053Z 03005KT 8SM -RA OVC024 07/06 A3006 RMK AO2 SLP185 P0012 T00720056
KNYC 
16nm NE 
041051Z AUTO 03008KT 330V070 5SM -RA BR BKN013 OVC020 08/07 A3005 RMK AO2 SLP169 P0010 T00830067
KTEB 
17nm NE 
041051Z 36006KT 4SM -RA BR FEW013 OVC024 07/06 A3004 RMK AO2 SLP171 P0009 T00720061
KLGA 
19nm NE 
041051Z 36011KT 10SM -RA SCT009 OVC022 08/06 A3003 RMK AO2 SLP167 P0014 T00830061
KSMQ 
19nm W 
ASOS 120.60 908-722-2139
041053Z AUTO 35007KT 6SM -RA BR FEW017 SCT026 OVC032 08/07 A3003 RMK AO2 SLP171 P0032 T00780067
TAF
KEWR 
5nm NE 
040830Z 0409/0512 02015G20KT 5SM -SHRA OVC015 FM041000 02017G25KT 5SM -SHRA OVC012 TEMPO 0412/0415 4SM -SHRA BR OVC007 FM041500 02016G23KT 4SM -SHRA BR BKN007 OVC015
KTEB 
17nm NE 
040830Z 0409/0512 36009KT 5SM -SHRA OVC015 FM041000 01011G18KT 6SM -SHRA SCT007 OVC012 TEMPO 0412/0415 4SM -SHRA BR OVC007 FM041500 02012G19KT 4SM -SHRA BR BKN007 OVC015
KLGA 
19nm NE 
040830Z 0409/0512 01010G21KT 5SM -SHRA BR OVC015 FM041000 02019G28KT 5SM -SHRA OVC012 TEMPO 0412/0415 4SM -SHRA BR OVC007 FM041500 03016G24KT 4SM -SHRA BR BKN007 OVC015
NOTAMs
Click for the latest NOTAMs
NOTAMs are issued by the DoD/FAA and will open in a separate window not controlled by AirNav.

 

 
 

FBO, Fuel Providers, and Aircraft Ground Support

  
 Business Name 
 
 Contact 
 
 Services / Description 
 
Fuel Prices
 
Comments
  
Linden Air Services 908-862-5557
no information available

If you are affiliated with Linden Air Services and would like to show here your services, contact info, web link, logo, and more, click here
100LL Jet A
FS $9.79 $9.93 
 Updated 29-Sep-2022
 
   1 read write
FS=Full service
Update Fuel Prices
 

Aviation Businesses, Services, and Facilities

  
 Business Name 
 
 Contact 
 
 Services / Description 
 
Distance
 
Comments
  
Richmond Pilots 718-753-0825
718-987-5862
[web site]
[email]
Flying club

More info about Richmond Pilots
on airport  
   write
 

Would you like to see your business listed on this page?

 If your business provides an interesting product or service to pilots, flight crews, aircraft, or users of the Linden Airport, you should consider listing it here.  To start the listing process, click on the button below
 
Add a business
 

Other Pages about Linden Airport

www.lindenairportnj.com
 
Update a link
 
Copyright © AirNav, LLC. All rights reserved. Privacy Policy  Contact